Regional Weather Roundup
Issued by NWS Sterling, VA

Home | Current Version | Previous Version | Graphics & Text | Print | Product List | Glossary On
Versions: 1 2 3 4 5 6 7 8 9 10 11 12 13 14 15 16 17 18 19 20 21 22 23 24 25 26 27 28
000
ASUS41 KLWX 182311
RWRLWX

REGIONAL WEATHER ROUNDUP
NATIONAL WEATHER SERVICE BALTIMORE MD/WASHINGTON DC
600 PM EST SUN FEB 18 2018

Note: "FAIR" indicates few or no clouds below 12,000 feet
with no significant weather and/or obstructions to visibility.
 TC=TEMPERATURE CELSIUS

 * =Non NWS site. Station does not report precipitation (e.g. rain,
    snow, etc.), thunder, or fog.

DCZ001-MDZ009-015-VAZ040>042-051-053>054-190000-
WASHINGTON METRO

CITY           SKY/WX    TMP DP  RH WIND       PRES   REMARKS
WASHINGTON NAT MOCLDY    47  31  53 N5        30.43R
DULLES         FAIR      43  30  60 NE6       30.41S
ANDREWS AFB    CLEAR     39  28  65 CALM      30.43R
FT BELVOIR     FAIR      46  28  50 CALM      30.42R
QUANTICO       FAIR      48  34  58 E7        30.43R
COLLEGE PARK*  FAIR      44  30  58 CALM      30.43R
LEESBURG*      FAIR      46  32  57 E3        30.42S
MANASSAS*      FAIR      44  29  55 E3        30.42R
GAITHERSBURG*  FAIR      43  28  55 CALM      30.42S

$$

MDZ006>007-011-014-190000-
BALTIMORE METRO

CITY           SKY/WX    TMP DP  RH WIND       PRES   REMARKS
BWI AIRPORT    FAIR      45  29  53 CALM      30.43R
MD SCIENCE CTR   N/A     46  29  51 MISG      30.43R
MARTIN STATE   PTCLDY    41  36  81 SE3       30.46R
ANNAPOLIS      FAIR      43  35  73 CALM      30.44R
FORT MEADE*    FAIR      37  32  81 CALM      30.45S

$$

MDZ012-015-019>023-190000-
MARYLAND EASTERN SHORE

CITY           SKY/WX    TMP DP  RH WIND       PRES   REMARKS
OCEAN CITY     FAIR      41  32  70 VRB6      30.45R
SALISBURY      FAIR      45  30  55 CALM      30.44R
BAY BRIDGE AP* FAIR      43  30  61 E3        30.45R
CAMBRIDGE*     CLEAR     45  32  61 CALM      30.44S
EASTON*        PTCLDY    46  30  53 CALM      30.47S

$$

MDZ017>025-190000-
SOUTHERN MARYLAND

CITY           SKY/WX    TMP DP  RH WIND       PRES   REMARKS
PATUXENT RIVER FAIR      43  33  68 NE3       30.43R
ST INIGOES     FAIR      42  31  64 CALM      30.42R
LEONARDTOWN*   FAIR      41  32  70 CALM      30.44R

$$

MDZ003>005-190000-
NORTH CENTRAL MARYLAND

CITY           SKY/WX    TMP DP  RH WIND       PRES   REMARKS
FREDERICK*     CLEAR     46  25  42 CALM      30.45R
HAGERSTOWN APT FAIR      45  27  49 CALM      30.40R
WESTMINSTER*   FAIR      43  30  61 CALM      30.41S

$$

MDZ501>502-190000-
WESTERN MARYLAND

CITY           SKY/WX    TMP DP  RH WIND       PRES   REMARKS
OAKLAND*       FAIR      32  27  80 SE8       30.27F WCI  25
CUMBERLAND*    FAIR      43  25  49 NE3       30.41F

$$

VAZ025>031-190000-
SHENANDOAH VALLEY

CITY           SKY/WX    TMP DP  RH WIND       PRES   REMARKS
WINCHESTER*    FAIR      41  28  60 CALM      30.40R
FRONT ROYAL*   FAIR      45  28  53 CALM      30.37R
LURAY*         FAIR      43  32  65 CALM      30.37R
NEW MARKET*    FAIR      41  29  63 CALM      30.35S
STAUNTON*      FAIR      44  29  55 CALM      30.37S
WAYNESBORO*    FAIR      46  32  58 SE5       30.35R

$$

WVZ021-048>050-054>055-190000-
EASTERN WEST VIRGINIA PANHANDLE

CITY           SKY/WX    TMP DP  RH WIND       PRES   REMARKS
MARTINSBURG    FAIR      44  26  49 E5        30.39R
PETERSBURG*    FAIR      44  27  50 CALM      30.34S

$$

VAZ036>039-050-190000-
CENTRAL FOOTHILLS

CITY           SKY/WX    TMP DP  RH WIND       PRES   REMARKS
CHARLOTTESVILL FAIR      49  30  48 S5        30.38R
CULPEPER*      FAIR      46  30  54 CALM      30.42R
ORANGE*        FAIR      46  32  57 CALM      30.40R
GORDONSVILLE*  FAIR      47  33  58 CALM      30.39R
WARRENTON*     FAIR      45  29  54 E3        30.41R

$$

VAZ055>057-190000-
NORTH AND CENTRAL PIEDMONT

CITY           SKY/WX    TMP DP  RH WIND       PRES   REMARKS
FREDERICKSBRG* FAIR      49  31  50 E3        30.42R
STAFFORD*      FAIR      47  30  51 CALM      30.46R

$$

NCZ024-NYZ072-PAZ021-071-VAZ022-071-190000-
OTHER REGIONAL OBSERVATIONS

CITY           SKY/WX    TMP DP  RH WIND       PRES   REMARKS
NEW YORK CITY  FAIR      42  23  46 VRB5      30.45R
PHILADELPHIA   MOCLDY    44  24  45 NW7       30.45R
PITTSBURGH     MOCLDY    38  26  62 SE3       30.33F
ROANOKE        FAIR      50  29  44 SE9       30.35S
RICHMOND       MOCLDY    51  32  48 E5        30.41R
RALEIGH        FAIR      56  36  47 SE6       30.36R

$$

ANZ530>537-190000-
MARINE OBSERVATIONS

STATION/POSITION TIME  TEMP    WIND        PRES
                       AIR SEA DIR/SP/G
                 (UTC) (F)     (DEG/KT/KT) (MB)
THOMAS PT LIGHT  2300   44 38   90/  6/  6   N/A
BALT KEY BRIDGE  2248   42     130/  6/  7 1030.9R
COVE POINT       2248   45      40/  6/  8 1030.9R
LEWISETTA        2248   44 44  180/  5/  5 1030.5R
SOLOMONS ISLAND  2248   44 40   30/  1/  3 1030.1R

$$





USA.gov is the U.S. government's official web portal to all federal, state and local government web resources and services.